Regional Weather Roundup
Issued by NWS Burlington, VT

Home | Current Version | Previous Version | Text Only | Print | Product List | Glossary On
Versions: 1 2 3 4 5 6 7 8 9 10 11 12 13 14 15 16 17 18 19 20 21 22 23 24 25 26 27 28 29 30 31 32 33 34 35 36 37 38 39 40 41 42 43 44 45 46 47 48 49 50
000
ASUS41 KBTV 310310
RWRBTV
VERMONT REGIONAL WEATHER ROUNDUP
NATIONAL WEATHER SERVICE BURLINGTON VT
1100 PM EDT SAT AUG 30 2014

NOTE: "FAIR" INDICATES FEW OR NO CLOUDS BELOW 12,000 FEET WITH NO
SIGNIFICANT WEATHER AND/OR OBSTRUCTIONS TO VISIBILITY.

* THESE REPORTS ARE NOT UNDER NWS QUALITY CONTROL AND/OR DO NOT
  REPORT WEATHER SUCH AS PRECIPITATION AND FOG.

VTZ001>019-310400-
_____VERMONT_____


CITY           SKY/WX    TMP DP  RH WIND       PRES   REMARKS
BURLINGTON     PTCLDY    73  59  61 S18G26    30.01S
MONTPELIER     MOCLDY    65  59  81 S9        30.11S
MORRISVILLE    MOCLDY    69  58  67 VRB5      30.06S
ST. JOHNSBURY*   N/A     67  58  72 MISG      30.05F
MIDDLEBURY*    FAIR      71  60  68 S9G18     30.08S
RUTLAND*       PTCLDY    64  59  82 SE3       30.10R
SPRINGFIELD    PTCLDY    62  59  90 W3        30.11F
HIGHGATE*      MOCLDY    73  60  63 S10G18    29.98S
NEWPORT*       FAIR      66  59  77 S8        30.04F
BENNINGTON     CLEAR     67  59  75 VRB6      30.12F

_____LAKE CHAMPLAIN_____


CITY           SKY/WX    TMP DP  RH WIND       PRES   REMARKS
COLCHESTER RF*   N/A     72  63  73 SW24        N/A
DIAMOND ISL*     N/A     72  61  68 SE20        N/A

$$

NYZ007-026>031-035-052-083-310400-
_____NORTHERN NEW YORK_____


CITY           SKY/WX    TMP DP  RH WIND       PRES   REMARKS
PLATTSBURGH    CLOUDY    71  61  70 S6        29.99S
SARANAC LAKE   CLOUDY    68  59  73 SW10      30.05S
MASSENA        MOCLDY    73  63  70 S13       29.94F
OGDENSBURG*    CLEAR     73  64  73 S10G18    29.94F
POTSDAM*       CLEAR     73  64  73 SW12      29.96F
WATERTOWN      LGT RAIN  71  64  78 S10G17    29.96F
FT DRUM        LGT RAIN  70  65  83 S12       30.00S
ALBANY         MOCLDY    71  61  70 S8        30.10S
GLENS FALLS    MOCLDY    69  60  73 S7        30.08S

$$
NHZ002-005-011-310400-
_____NEW HAMPSHIRE_____


CITY           SKY/WX    TMP DP  RH WIND       PRES   REMARKS
LEBANON        PTCLDY    68  59  73 S9        30.09S
KEENE          PTCLDY    63  54  72 CALM      30.13F
PLYMOUTH       FAIR      59  59 100 CALM      30.10F
WHITEFIELD     PTCLDY    58  54  86 CALM      30.09F

$$

_____REGIONAL QUEBEC LOCATIONS_____


CITY           SKY/WX    TMP DP  RH WIND       PRES   REMARKS
MONTREAL       MOCLDY    72  63  73 SE13      29.93S
QUEBEC CITY    MOCLDY    64  61  88 CALM      29.94F
SHERBROOKE     MOCLDY    66  59  77 S6        30.01F

_____REGIONAL ONTARIO LOCATIONS_____


CITY           SKY/WX    TMP DP  RH WIND       PRES   REMARKS
OTTAWA         CLOUDY    73  64  73 S13G20    29.90F

______KEY______
VSB  - VISIBILITY IN MILES
WCI  - WIND CHILL INDEX
HX   - HEAT INDEX
$$
NNNN



USA.gov is the U.S. government's official web portal to all federal, state and local government web resources and services.